Weather History for KAFW - August, 2013

Change the Weather History Date:

Tuesday, August 6, 2013

  Actual Average Record
Temperature  
Mean Temperature 94 °F -  
Max Temperature 106 °F 95 °F 107 °F (2003)
Min Temperature 81 °F 72 °F 71 °F (1997)
Cooling Degree Days 28    
Growing Degree Days 44 (Base 50)    
Moisture  
Dew Point 63 °F    
Average Humidity 41    
Maximum Humidity 65    
Minimum Humidity 22    
Precipitation  
Precipitation 0.00 in - - ()
Sea Level Pressure  
Sea Level Pressure 29.80 in    
Wind  
Wind Speed 9 mph (South)    
Max Wind Speed 16 mph    
Max Gust Speed 25 mph    
Visibility 10 miles    
Events      
Averages and records for this station are not official NWS values.
T = Trace of Precipitation, MM = Missing Value Source: NWS Daily Summary

Daily Weather History Graph

Daily Weather History Graph

Search for Another Location

Airport or City:

Trip Planner

Search our weather history database for the weather conditions in past years. The results will help you decide how hot, cold, wet, or windy it might be!

Date:

Astronomy

Aug. 06, 2013 Rise Set
Actual Time 6:46 AM CDT 8:23 PM CDT
Civil Twilight 6:19 AM CDT 8:49 PM CDT
Nautical Twilight 5:47 AM CDT 9:21 PM CDT
Astronomical Twilight 5:14 AM CDT 9:55 PM CDT
Moon 6:35 AM CDT (8/6) 8:03 PM CDT (8/6)
Length of Visible Light 14h 30m
Length of Day
13h 36m
Waning Crescent, 0% of the Moon is Illuminated
Aug 6
Waning Crescent
Aug 6
New
Aug 14
First Quarter
Aug 20
Full
Aug 28
Last Quarter

Hourly Weather History & Observations

Time (CDT) Temp. Heat Index Dew Point Humidity Pressure Visibility Wind Dir Wind Speed Gust Speed Precip Events Conditions
12:53 AM 82.9 °F 83.3 °F 61.0 °F 47% 29.83 in 10.0 mi SSE 6.9 mph - N/A   Clear
1:53 AM 84.9 °F 85.4 °F 62.1 °F 46% 29.83 in 10.0 mi South 6.9 mph - N/A   Clear
2:53 AM 84.9 °F 86.6 °F 64.9 °F 51% 29.81 in 10.0 mi South 10.4 mph 16.1 mph N/A   Clear
3:53 AM 84.0 °F 86.3 °F 66.0 °F 55% 29.81 in 10.0 mi South 9.2 mph - N/A   Clear
4:53 AM 82.9 °F 85.0 °F 66.0 °F 56% 29.81 in 10.0 mi South 10.4 mph 17.3 mph N/A   Clear
5:53 AM 82.0 °F 84.5 °F 66.9 °F 60% 29.81 in 10.0 mi South 6.9 mph - N/A   Clear
6:53 AM 81.0 °F 83.8 °F 68.0 °F 65% 29.83 in 10.0 mi SSW 6.9 mph - N/A   Clear
7:53 AM 82.0 °F 85.5 °F 69.1 °F 65% 29.84 in 10.0 mi South 5.8 mph - N/A   Clear
8:53 AM 86.0 °F 90.1 °F 69.1 °F 57% 29.84 in 10.0 mi SSW 10.4 mph 19.6 mph N/A   Clear
9:53 AM 90.0 °F 92.4 °F 66.0 °F 45% 29.84 in 10.0 mi SSW 10.4 mph 18.4 mph N/A   Clear
10:53 AM 95.0 °F 97.0 °F 64.0 °F 36% 29.84 in 10.0 mi SSW 8.1 mph 18.4 mph N/A   Clear
11:53 AM 98.1 °F 100.7 °F 64.0 °F 33% 29.84 in 10.0 mi SSW 10.4 mph 17.3 mph N/A   Clear
12:53 PM 100.9 °F 102.7 °F 62.1 °F 28% 29.82 in 10.0 mi South 16.1 mph 25.3 mph N/A   Clear
1:53 PM 102.9 °F 104.2 °F 61.0 °F 25% 29.80 in 10.0 mi South 13.8 mph 20.7 mph N/A   Clear
2:53 PM 102.0 °F 103.3 °F 61.0 °F 26% 29.78 in 10.0 mi SSE 9.2 mph 18.4 mph N/A   Partly Cloudy
3:53 PM 106.0 °F 107.1 °F 60.1 °F 22% 29.77 in 10.0 mi SSE 12.7 mph 18.4 mph N/A   Partly Cloudy
4:53 PM 104.0 °F 105.3 °F 60.1 °F 24% 29.75 in 10.0 mi SSE 13.8 mph 21.9 mph N/A   Partly Cloudy
5:53 PM 102.9 °F 103.6 °F 60.1 °F 24% 29.74 in 10.0 mi SSW 11.5 mph 16.1 mph N/A   Partly Cloudy
6:53 PM 100.9 °F 101.6 °F 60.1 °F 26% 29.73 in 10.0 mi South 12.7 mph 19.6 mph N/A   Clear
7:53 PM 97.0 °F 96.5 °F 59.0 °F 28% 29.73 in 10.0 mi South 12.7 mph - N/A   Clear
8:53 PM 93.9 °F 94.0 °F 61.0 °F 33% 29.74 in 10.0 mi South 9.2 mph - N/A   Clear
9:53 PM 91.0 °F 91.5 °F 62.1 °F 38% 29.77 in 10.0 mi SSE 8.1 mph - N/A   Clear
10:53 PM 87.1 °F 87.5 °F 62.1 °F 43% 29.78 in 10.0 mi SSE 5.8 mph - N/A   Clear
11:53 PM 88.0 °F 88.4 °F 62.1 °F 42% 29.78 in 10.0 mi South 6.9 mph - N/A   Clear